When you browse on this site, cookies collect data to enhance your experience and personalize the content and advertising you see.
Visit our Privacy Policy to learn more. By continuing to use the site, you agree to this use of cookies and data.
  • In Österreich
  • Länderverzeichnis
  • Für 7 Tage
  • Wassertemperatur
  • Wetterkarte
  • News
  • Widgets
  • user-avatar
    Anmelden

    Stündliche Wetter Edmundston

    Heute, 3 Juni, Mittwoch

    Zeit Temperatur Niederschläge Wind Luftdruck Luftfeuchtigkeit
    00:00 +8°C° 0.5 mm 6 m/S 695 mmHg 90%
    01:00 +6°C° 0.5 mm 8 m/S 695 mmHg 91%
    02:00 +6°C° 1.4 mm 8 m/S 695 mmHg 90%
    03:00 +5°C° 1.4 mm 8 m/S 696 mmHg 89%
    04:00 +5°C° 1.4 mm 9 m/S 696 mmHg 88%
    05:00 +6°C° 0.2 mm 9 m/S 696 mmHg 84%
    06:00 +7°C° 0.2 mm 9 m/S 697 mmHg 80%
    07:00 +7°C° 0.2 mm 9 m/S 697 mmHg 75%
    08:00 +10°C° 0 mm 9 m/S 697 mmHg 70%
    09:00 +11°C° 0 mm 9 m/S 697 mmHg 65%
    10:00 +12°C° 0 mm 9 m/S 697 mmHg 60%
    11:00 +13°C° 0.2 mm 8 m/S 697 mmHg 57%
    12:00 +15°C° 0.2 mm 8 m/S 697 mmHg 53%
    13:00 +15°C° 0.2 mm 8 m/S 697 mmHg 50%
    14:00 +15°C° 0.1 mm 8 m/S 697 mmHg 52%
    15:00 +15°C° 0.1 mm 8 m/S 697 mmHg 55%
    16:00 +15°C° 0.1 mm 7 m/S 697 mmHg 57%
    17:00 +14°C° 0.1 mm 6 m/S 697 mmHg 64%
    18:00 +11°C° 0.1 mm 6 m/S 697 mmHg 70%
    19:00 +10°C° 0.1 mm 5 m/S 697 mmHg 76%
    20:00 +10°C° 0 mm 4 m/S 698 mmHg 80%
    21:00 +8°C° 0 mm 4 m/S 698 mmHg 84%
    22:00 +7°C° 0 mm 3 m/S 698 mmHg 88%
    23:00 +7°C° 0 mm 3 m/S 698 mmHg 86%

    Morgen, 4 Juni, Donnerstag

    Zeit Temperatur Niederschläge Wind Luftdruck Luftfeuchtigkeit
    00:00 +7°C° 0 mm 3 m/S 698 mmHg 85%
    01:00 +7°C° 0 mm 3 m/S 698 mmHg 83%
    02:00 +5°C° 0 mm 3 m/S 698 mmHg 84%
    03:00 +5°C° 0 mm 4 m/S 698 mmHg 84%
    04:00 +5°C° 0 mm 4 m/S 698 mmHg 85%
    05:00 +6°C° 0 mm 4 m/S 698 mmHg 82%
    06:00 +8°C° 0 mm 4 m/S 698 mmHg 80%
    07:00 +10°C° 0 mm 4 m/S 698 mmHg 78%
    08:00 +11°C° 0.6 mm 4 m/S 698 mmHg 74%
    09:00 +13°C° 0.6 mm 4 m/S 699 mmHg 71%
    10:00 +14°C° 0.6 mm 4 m/S 699 mmHg 67%
    11:00 +14°C° 0.7 mm 4 m/S 699 mmHg 66%
    12:00 +14°C° 0.7 mm 4 m/S 699 mmHg 65%
    13:00 +14°C° 0.7 mm 3 m/S 699 mmHg 64%
    14:00 +14°C° 0.5 mm 4 m/S 699 mmHg 67%
    15:00 +13°C° 0.5 mm 4 m/S 699 mmHg 69%
    16:00 +13°C° 0.5 mm 5 m/S 699 mmHg 72%
    17:00 +12°C° 0 mm 4 m/S 699 mmHg 76%
    18:00 +11°C° 0 mm 3 m/S 699 mmHg 80%
    19:00 +10°C° 0 mm 2 m/S 699 mmHg 84%
    20:00 +9°C° 0 mm 2 m/S 699 mmHg 86%
    21:00 +9°C° 0 mm 1 m/S 700 mmHg 88%
    22:00 +8°C° 0 mm 1 m/S 700 mmHg 90%
    23:00 +8°C° 0 mm 1 m/S 700 mmHg 90%

    übermorgen, 5 Juni, Freitag

    Zeit Temperatur Niederschläge Wind Luftdruck Luftfeuchtigkeit
    00:00 +7°C° 0 mm 1 m/S 700 mmHg 91%
    01:00 +7°C° 0 mm 1 m/S 700 mmHg 92%
    02:00 +7°C° 0 mm 1 m/S 700 mmHg 92%
    03:00 +6°C° 0 mm 2 m/S 701 mmHg 93%
    04:00 +5°C° 0 mm 2 m/S 701 mmHg 94%
    05:00 +7°C° 0 mm 2 m/S 701 mmHg 89%
    06:00 +9°C° 0 mm 3 m/S 701 mmHg 85%
    07:00 +11°C° 0 mm 3 m/S 701 mmHg 81%
    08:00 +12°C° 0 mm 4 m/S 701 mmHg 77%
    09:00 +14°C° 0 mm 4 m/S 701 mmHg 72%
    10:00 +15°C° 0 mm 5 m/S 701 mmHg 68%
    11:00 +16°C° 0.2 mm 6 m/S 700 mmHg 67%
    12:00 +16°C° 0.2 mm 6 m/S 700 mmHg 66%
    13:00 +17°C° 0.2 mm 7 m/S 699 mmHg 65%
    14:00 +16°C° 0.2 mm 7 m/S 699 mmHg 66%
    15:00 +16°C° 0.2 mm 7 m/S 699 mmHg 66%
    16:00 +16°C° 0.2 mm 7 m/S 698 mmHg 67%
    17:00 +15°C° 0 mm 7 m/S 698 mmHg 69%
    18:00 +14°C° 0 mm 7 m/S 698 mmHg 71%
    19:00 +12°C° 0 mm 7 m/S 697 mmHg 74%
    20:00 +12°C° 0 mm 8 m/S 697 mmHg 72%
    21:00 +11°C° 0 mm 8 m/S 697 mmHg 70%
    22:00 +11°C° 0 mm 9 m/S 696 mmHg 69%
    23:00 +10°C° 0 mm 9 m/S 696 mmHg 70%

    6 Juni, Samstag

    Zeit Temperatur Niederschläge Wind Luftdruck Luftfeuchtigkeit
    00:00 +10°C° 0 mm 8 m/S 695 mmHg 72%
    01:00 +9°C° 0 mm 8 m/S 695 mmHg 73%
    02:00 +9°C° 0.1 mm 8 m/S 694 mmHg 74%
    03:00 +9°C° 0.1 mm 8 m/S 694 mmHg 74%
    04:00 +9°C° 0.1 mm 8 m/S 693 mmHg 75%
    05:00 +9°C° 0.7 mm 8 m/S 693 mmHg 78%
    06:00 +9°C° 0.7 mm 8 m/S 693 mmHg 80%
    07:00 +9°C° 0.7 mm 7 m/S 692 mmHg 83%
    08:00 +9°C° 0.8 mm 7 m/S 692 mmHg 85%
    09:00 +9°C° 0.8 mm 7 m/S 692 mmHg 86%
    10:00 +9°C° 0.8 mm 7 m/S 691 mmHg 88%
    11:00 +9°C° 3.4 mm 7 m/S 691 mmHg 90%
    12:00 +9°C° 3.4 mm 7 m/S 691 mmHg 92%
    13:00 +9°C° 3.4 mm 7 m/S 690 mmHg 94%
    14:00 +10°C° 2.5 mm 7 m/S 690 mmHg 94%
    15:00 +10°C° 2.5 mm 7 m/S 690 mmHg 94%
    16:00 +10°C° 2.5 mm 7 m/S 689 mmHg 94%
    17:00 +11°C° 0.6 mm 7 m/S 690 mmHg 94%
    18:00 +11°C° 0.6 mm 6 m/S 690 mmHg 94%
    19:00 +11°C° 0.6 mm 6 m/S 690 mmHg 93%
    20:00 +12°C° 0 mm 5 m/S 690 mmHg 94%
    21:00 +11°C° 0 mm 4 m/S 690 mmHg 94%
    22:00 +11°C° 0 mm 3 m/S 690 mmHg 94%
    23:00 +11°C° 0 mm 3 m/S 690 mmHg 95%

    7 Juni, Sonntag

    Zeit Temperatur Niederschläge Wind Luftdruck Luftfeuchtigkeit
    00:00 +10°C° 0 mm 2 m/S 690 mmHg 96%
    01:00 +10°C° 0 mm 2 m/S 690 mmHg 96%
    02:00 +10°C° 0.1 mm 2 m/S 690 mmHg 97%
    03:00 +11°C° 0.1 mm 1 m/S 690 mmHg 97%
    04:00 +11°C° 0.1 mm 1 m/S 690 mmHg 97%
    05:00 +10°C° 0.2 mm 2 m/S 690 mmHg 96%
    06:00 +12°C° 0.2 mm 2 m/S 690 mmHg 95%
    07:00 +11°C° 0.2 mm 3 m/S 690 mmHg 94%
    08:00 +12°C° 0 mm 3 m/S 690 mmHg 91%
    09:00 +13°C° 0 mm 4 m/S 691 mmHg 87%
    10:00 +14°C° 0 mm 4 m/S 691 mmHg 84%
    11:00 +15°C° 0.1 mm 5 m/S 691 mmHg 81%
    12:00 +16°C° 0.1 mm 5 m/S 691 mmHg 78%
    13:00 +17°C° 0.1 mm 5 m/S 692 mmHg 74%
    14:00 +17°C° 0.3 mm 5 m/S 692 mmHg 75%
    15:00 +16°C° 0.3 mm 5 m/S 692 mmHg 76%
    16:00 +17°C° 0.3 mm 4 m/S 692 mmHg 77%
    17:00 +15°C° 0.1 mm 4 m/S 692 mmHg 80%
    18:00 +14°C° 0.1 mm 3 m/S 692 mmHg 84%
    19:00 +14°C° 0.1 mm 2 m/S 693 mmHg 87%
    20:00 +13°C° 0 mm 2 m/S 693 mmHg 89%
    21:00 +12°C° 0 mm 2 m/S 693 mmHg 92%
    22:00 +10°C° 0 mm 2 m/S 693 mmHg 94%
    23:00 +9°C° 0 mm 2 m/S 693 mmHg 94%

    8 Juni, Montag

    Zeit Temperatur Niederschläge Wind Luftdruck Luftfeuchtigkeit
    00:00 +9°C° 0 mm 3 m/S 693 mmHg 95%
    01:00 +8°C° 0 mm 3 m/S 694 mmHg 95%
    02:00 +7°C° 0 mm 4 m/S 694 mmHg 95%
    03:00 +7°C° 0 mm 4 m/S 694 mmHg 95%
    04:00 +7°C° 0 mm 5 m/S 694 mmHg 94%
    05:00 +7°C° 0 mm 5 m/S 694 mmHg 92%
    06:00 +8°C° 0 mm 6 m/S 694 mmHg 90%
    07:00 +9°C° 0 mm 6 m/S 695 mmHg 87%
    08:00 +9°C° 0 mm 6 m/S 695 mmHg 86%
    09:00 +10°C° 0 mm 6 m/S 695 mmHg 84%
    10:00 +10°C° 0 mm 6 m/S 695 mmHg 83%
    11:00 +11°C° 0.1 mm 6 m/S 695 mmHg 82%
    12:00 +11°C° 0.1 mm 7 m/S 694 mmHg 80%
    13:00 +12°C° 0.1 mm 7 m/S 694 mmHg 79%
    14:00 +12°C° 0.1 mm 7 m/S 694 mmHg 77%
    15:00 +12°C° 0.1 mm 7 m/S 694 mmHg 75%
    16:00 +14°C° 0.1 mm 7 m/S 694 mmHg 73%
    17:00 +12°C° 0 mm 7 m/S 694 mmHg 75%
    18:00 +13°C° 0 mm 6 m/S 694 mmHg 76%
    19:00 +12°C° 0 mm 5 m/S 694 mmHg 78%
    20:00 +10°C° 0 mm 5 m/S 694 mmHg 78%
    21:00 +10°C° 0 mm 5 m/S 694 mmHg 77%
    22:00 +9°C° 0 mm 5 m/S 694 mmHg 77%
    23:00 +9°C° 0 mm 5 m/S 694 mmHg 77%
    Mehr zeigen